Location: Holyhead Bay
(53.3667°N, 4.6667°W)
Time: 22:08:27
(UTC+00:00)

Cosmos 1408 Rocket - Pass Details

Date: 18 April 2021
Orbit: 601 x 631 km, 82.6° (Epoch: 16 May)

Event Time Altitude Azimuth Distance (km) Brightness Sun altitude
Rises 20:21:17 0° 2° (N) 2,867 7.4 -8.4°
Reaches altitude 10° 20:25:27 10° 42° (NE) 1,958 6.0 -8.9°
Maximum altitude 20:26:27 11° 55° (NE) 1,914 5.9 -9.0°
Drops below altitude 10° 20:27:27 10° 69° (ENE) 1,957 5.8 -9.1°
Enters shadow 20:29:03 - 87° (E) 2,195 5.9 -9.3°
